Year,Month,Day,Hour,Minute,Value (Times are PST for temperature in C)
2012,06,24,00,00,8.80
2012,06,24,00,01,8.80
2012,06,24,00,02,8.70
2012,06,24,00,03,8.70
2012,06,24,00,04,8.70
2012,06,24,00,05,8.70
2012,06,24,00,06,8.70
2012,06,24,00,07,8.60
2012,06,24,00,08,8.60
2012,06,24,00,09,8.60
2012,06,24,00,10,8.60
2012,06,24,00,11,8.60
2012,06,24,00,12,8.60
2012,06,24,00,13,8.60
2012,06,24,00,14,8.60
2012,06,24,00,15,8.60
2012,06,24,00,16,8.60
2012,06,24,00,17,8.60
2012,06,24,00,18,8.60
2012,06,24,00,19,8.50
2012,06,24,00,20,8.50
2012,06,24,00,21,8.50
2012,06,24,00,22,8.40
2012,06,24,00,23,8.40
2012,06,24,00,24,8.40
2012,06,24,00,25,8.40
2012,06,24,00,26,8.30
2012,06,24,00,27,8.30
2012,06,24,00,28,8.30
2012,06,24,00,29,8.30
2012,06,24,00,30,8.20
2012,06,24,00,31,8.20
2012,06,24,00,32,8.20
2012,06,24,00,33,8.20
2012,06,24,00,34,8.10
2012,06,24,00,35,8.10
2012,06,24,00,36,8.10
2012,06,24,00,37,8.00
2012,06,24,00,38,8.00
2012,06,24,00,39,8.00
2012,06,24,00,40,7.90
2012,06,24,00,41,7.90
2012,06,24,00,42,7.90
2012,06,24,00,43,7.80
2012,06,24,00,44,7.80
2012,06,24,00,45,7.80
2012,06,24,00,46,7.80
2012,06,24,00,47,7.80
2012,06,24,00,48,7.80
2012,06,24,00,49,7.70
2012,06,24,00,50,7.70
2012,06,24,00,51,7.70
2012,06,24,00,52,7.70
2012,06,24,00,53,7.70
2012,06,24,00,54,7.70
2012,06,24,00,55,7.70
2012,06,24,00,56,7.70
2012,06,24,00,57,7.70
2012,06,24,00,58,7.70
2012,06,24,00,59,7.70
2012,06,24,01,00,7.70
2012,06,24,01,01,7.70
2012,06,24,01,02,7.70
2012,06,24,01,03,7.70
2012,06,24,01,04,7.70
2012,06,24,01,05,7.70
2012,06,24,01,06,7.70
2012,06,24,01,07,7.70
2012,06,24,01,08,7.70
2012,06,24,01,09,7.70
2012,06,24,01,10,7.70
2012,06,24,01,11,7.70
2012,06,24,01,12,7.60
2012,06,24,01,13,7.60
2012,06,24,01,14,7.60
2012,06,24,01,15,7.60
2012,06,24,01,16,7.50
2012,06,24,01,17,7.50
2012,06,24,01,18,7.40
2012,06,24,01,19,7.40
2012,06,24,01,20,7.40
2012,06,24,01,21,7.30
2012,06,24,01,22,7.30
2012,06,24,01,23,7.30
2012,06,24,01,24,7.30
2012,06,24,01,25,7.30
2012,06,24,01,26,7.30
2012,06,24,01,27,7.30
2012,06,24,01,28,7.30
2012,06,24,01,29,7.30
2012,06,24,01,30,7.30
2012,06,24,01,31,7.30
2012,06,24,01,32,7.30
2012,06,24,01,33,7.30
2012,06,24,01,34,7.30
2012,06,24,01,35,7.20
2012,06,24,01,36,7.20
2012,06,24,01,37,7.20
2012,06,24,01,38,7.20
2012,06,24,01,39,7.20
2012,06,24,01,40,7.20
2012,06,24,01,41,7.20
2012,06,24,01,42,7.20
2012,06,24,01,43,7.20
2012,06,24,01,44,7.20
2012,06,24,01,45,7.20
2012,06,24,01,46,7.20
2012,06,24,01,47,7.20
2012,06,24,01,48,7.20
2012,06,24,01,49,7.20
2012,06,24,01,50,7.20
2012,06,24,01,51,7.20
2012,06,24,01,52,7.20
2012,06,24,01,53,7.20
2012,06,24,01,54,7.20
2012,06,24,01,55,7.20
2012,06,24,01,56,7.20
2012,06,24,01,57,7.20
2012,06,24,01,58,7.20
2012,06,24,01,59,7.10
2012,06,24,02,00,7.10
2012,06,24,02,01,7.10
2012,06,24,02,02,7.10
2012,06,24,02,03,7.10
2012,06,24,02,04,7.10
2012,06,24,02,05,7.10
2012,06,24,02,06,7.10
2012,06,24,02,07,7.00
2012,06,24,02,08,7.00
2012,06,24,02,09,7.00
2012,06,24,02,10,7.00
2012,06,24,02,11,6.90
2012,06,24,02,12,6.90
2012,06,24,02,13,6.90
2012,06,24,02,14,6.90
2012,06,24,02,15,6.90
2012,06,24,02,16,6.90
2012,06,24,02,17,6.90
2012,06,24,02,18,6.80
2012,06,24,02,19,6.80
2012,06,24,02,20,6.80
2012,06,24,02,21,6.80
2012,06,24,02,22,6.90
2012,06,24,02,23,6.90
2012,06,24,02,24,6.90
2012,06,24,02,25,6.90
2012,06,24,02,26,6.90
2012,06,24,02,27,6.90
2012,06,24,02,28,6.90
2012,06,24,02,29,6.90
2012,06,24,02,30,6.80
2012,06,24,02,31,6.80
2012,06,24,02,32,6.80
2012,06,24,02,33,6.80
2012,06,24,02,34,6.80
2012,06,24,02,35,6.80
2012,06,24,02,36,6.80
2012,06,24,02,37,6.80
2012,06,24,02,38,6.80
2012,06,24,02,39,6.70
2012,06,24,02,40,6.70
2012,06,24,02,41,6.70
2012,06,24,02,42,6.70
2012,06,24,02,43,6.70
2012,06,24,02,44,6.70
2012,06,24,02,45,6.70
2012,06,24,02,46,6.60
2012,06,24,02,47,6.60
2012,06,24,02,48,6.60
2012,06,24,02,49,6.60
2012,06,24,02,50,6.50
2012,06,24,02,51,6.50
2012,06,24,02,52,6.50
2012,06,24,02,53,6.50
2012,06,24,02,54,6.50
2012,06,24,02,55,6.40
2012,06,24,02,56,6.40
2012,06,24,02,57,6.40
2012,06,24,02,58,6.40
2012,06,24,02,59,6.40
2012,06,24,03,00,6.40
2012,06,24,03,01,6.40
2012,06,24,03,02,6.30
2012,06,24,03,03,6.30
2012,06,24,03,04,6.30
2012,06,24,03,05,6.30
2012,06,24,03,06,6.30
2012,06,24,03,07,6.30
2012,06,24,03,08,6.30
2012,06,24,03,09,6.20
2012,06,24,03,10,6.20
2012,06,24,03,11,6.20
2012,06,24,03,12,6.20
2012,06,24,03,13,6.20
2012,06,24,03,14,6.20
2012,06,24,03,15,6.20
2012,06,24,03,16,6.20
2012,06,24,03,17,6.20
2012,06,24,03,18,6.20
2012,06,24,03,19,6.20
2012,06,24,03,20,6.20
2012,06,24,03,21,6.10
2012,06,24,03,22,6.10
2012,06,24,03,23,6.10
2012,06,24,03,24,6.10
2012,06,24,03,25,6.10
2012,06,24,03,26,6.10
2012,06,24,03,27,6.10
2012,06,24,03,28,6.10
2012,06,24,03,29,6.10
2012,06,24,03,30,6.10
2012,06,24,03,31,6.10
2012,06,24,03,32,6.00
2012,06,24,03,33,6.00
2012,06,24,03,34,6.00
2012,06,24,03,35,6.00
2012,06,24,03,36,6.00
2012,06,24,03,37,6.00
2012,06,24,03,38,6.00
2012,06,24,03,39,5.90
2012,06,24,03,40,5.90
2012,06,24,03,41,5.90
2012,06,24,03,42,5.90
2012,06,24,03,43,5.90
2012,06,24,03,44,5.90
2012,06,24,03,45,5.90
2012,06,24,03,46,5.90
2012,06,24,03,47,5.90
2012,06,24,03,48,5.90
2012,06,24,03,49,5.90
2012,06,24,03,50,5.90
2012,06,24,03,51,5.90
2012,06,24,03,52,5.90
2012,06,24,03,53,5.90
2012,06,24,03,54,5.90
2012,06,24,03,55,5.90
2012,06,24,03,56,5.90
2012,06,24,03,57,5.90
2012,06,24,03,58,5.90
2012,06,24,03,59,5.80
2012,06,24,04,00,5.80
2012,06,24,04,01,5.80
2012,06,24,04,02,5.80
2012,06,24,04,03,5.80
2012,06,24,04,04,5.80
2012,06,24,04,05,5.80
2012,06,24,04,06,5.80
2012,06,24,04,07,5.80
2012,06,24,04,08,5.80
2012,06,24,04,09,5.80
2012,06,24,04,10,5.80
2012,06,24,04,11,5.80
2012,06,24,04,12,5.80
2012,06,24,04,13,5.80
2012,06,24,04,14,5.80
2012,06,24,04,15,5.70
2012,06,24,04,16,5.70
2012,06,24,04,17,5.70
2012,06,24,04,18,5.70
2012,06,24,04,19,5.70
2012,06,24,04,20,5.70
2012,06,24,04,21,5.70
2012,06,24,04,22,5.70
2012,06,24,04,23,5.70
2012,06,24,04,24,5.70
2012,06,24,04,25,5.70
2012,06,24,04,26,5.70
2012,06,24,04,27,5.70
2012,06,24,04,28,5.70
2012,06,24,04,29,5.70
2012,06,24,04,30,5.70
2012,06,24,04,31,5.70
2012,06,24,04,32,5.60
2012,06,24,04,33,5.60
2012,06,24,04,34,5.60
2012,06,24,04,35,5.60
2012,06,24,04,36,5.60
2012,06,24,04,37,5.60
2012,06,24,04,38,5.60
2012,06,24,04,39,5.60
2012,06,24,04,40,5.60
2012,06,24,04,41,5.60
2012,06,24,04,42,5.60
2012,06,24,04,43,5.60
2012,06,24,04,44,5.50
2012,06,24,04,45,5.50
2012,06,24,04,46,5.50
2012,06,24,04,47,5.50
2012,06,24,04,48,5.50
2012,06,24,04,49,5.50
2012,06,24,04,50,5.50
2012,06,24,04,51,5.50
2012,06,24,04,52,5.50
2012,06,24,04,53,5.50
2012,06,24,04,54,5.50
2012,06,24,04,55,5.50
2012,06,24,04,56,5.50
2012,06,24,04,57,5.50
2012,06,24,04,58,5.50
2012,06,24,04,59,5.50
2012,06,24,05,00,5.40
2012,06,24,05,01,5.40
2012,06,24,05,02,5.40
2012,06,24,05,03,5.40
2012,06,24,05,04,5.40
2012,06,24,05,05,5.40
2012,06,24,05,06,5.40
2012,06,24,05,07,5.40
2012,06,24,05,08,5.40
2012,06,24,05,09,5.50
2012,06,24,05,10,5.50
2012,06,24,05,11,5.50
2012,06,24,05,12,5.50
2012,06,24,05,13,5.50
2012,06,24,05,14,5.50
2012,06,24,05,15,5.50
2012,06,24,05,16,5.50
2012,06,24,05,17,5.50
2012,06,24,05,18,5.50
2012,06,24,05,19,5.50
2012,06,24,05,20,5.50
2012,06,24,05,21,5.50
2012,06,24,05,22,5.50
2012,06,24,05,23,5.40
2012,06,24,05,24,5.40
2012,06,24,05,25,5.40
2012,06,24,05,26,5.40
2012,06,24,05,27,5.40
2012,06,24,05,28,5.40
2012,06,24,05,29,5.40
2012,06,24,05,30,5.40
2012,06,24,05,31,5.40
2012,06,24,05,32,5.40
2012,06,24,05,33,5.40
2012,06,24,05,34,5.40
2012,06,24,05,35,5.40
2012,06,24,05,36,5.40
2012,06,24,05,37,5.40
2012,06,24,05,38,5.40
2012,06,24,05,39,5.40
2012,06,24,05,40,5.40
2012,06,24,05,41,5.40
2012,06,24,05,42,5.50
2012,06,24,05,43,5.50
2012,06,24,05,44,5.50
2012,06,24,05,45,5.50
2012,06,24,05,46,5.60
2012,06,24,05,47,5.60
2012,06,24,05,48,5.60
2012,06,24,05,49,5.60
2012,06,24,05,50,5.60
2012,06,24,05,51,5.60
2012,06,24,05,52,5.60
2012,06,24,05,53,5.60
2012,06,24,05,54,5.70
2012,06,24,05,55,5.70
2012,06,24,05,56,5.70
2012,06,24,05,57,5.70
2012,06,24,05,58,5.60
2012,06,24,05,59,5.60
2012,06,24,06,00,5.60
2012,06,24,06,01,5.60
2012,06,24,06,02,5.60
2012,06,24,06,03,5.60
2012,06,24,06,04,5.60
2012,06,24,06,05,5.60
2012,06,24,06,06,5.70
2012,06,24,06,07,5.70
2012,06,24,06,08,5.70
2012,06,24,06,09,5.70
2012,06,24,06,10,5.70
2012,06,24,06,11,5.70
2012,06,24,06,12,5.70
2012,06,24,06,13,5.70
2012,06,24,06,14,5.70
2012,06,24,06,15,5.80
2012,06,24,06,16,5.80
2012,06,24,06,17,5.80
2012,06,24,06,18,5.80
2012,06,24,06,19,5.80
2012,06,24,06,20,5.90
2012,06,24,06,21,5.90
2012,06,24,06,22,5.90
2012,06,24,06,23,5.90
2012,06,24,06,24,5.90
2012,06,24,06,25,5.90
2012,06,24,06,26,5.90
2012,06,24,06,27,5.90
2012,06,24,06,28,6.00
2012,06,24,06,29,6.00
2012,06,24,06,30,6.10
2012,06,24,06,31,6.10
2012,06,24,06,32,6.10
2012,06,24,06,33,6.10
2012,06,24,06,34,6.10
2012,06,24,06,35,6.20
2012,06,24,06,36,6.20
2012,06,24,06,37,6.20
2012,06,24,06,38,6.20
2012,06,24,06,39,6.30
2012,06,24,06,40,6.30
2012,06,24,06,41,6.30
2012,06,24,06,42,6.30
2012,06,24,06,43,6.40
2012,06,24,06,44,6.40
2012,06,24,06,45,6.40
2012,06,24,06,46,6.40
2012,06,24,06,47,6.40
2012,06,24,06,48,6.40
2012,06,24,06,49,6.50
2012,06,24,06,50,6.50
2012,06,24,06,51,6.50
2012,06,24,06,52,6.60
2012,06,24,06,53,6.60
2012,06,24,06,54,6.60
2012,06,24,06,55,6.70
2012,06,24,06,56,6.70
2012,06,24,06,57,6.70
2012,06,24,06,58,6.80
2012,06,24,06,59,6.80
2012,06,24,07,00,6.80
2012,06,24,07,01,6.90
2012,06,24,07,02,6.90
2012,06,24,07,03,7.00
2012,06,24,07,04,7.00
2012,06,24,07,05,7.10
2012,06,24,07,06,7.10
2012,06,24,07,07,7.20
2012,06,24,07,08,7.20
2012,06,24,07,09,7.20
2012,06,24,07,10,7.30
2012,06,24,07,11,7.30
2012,06,24,07,12,7.40
2012,06,24,07,13,7.40
2012,06,24,07,14,7.50
2012,06,24,07,15,7.50
2012,06,24,07,16,7.60
2012,06,24,07,17,7.60
2012,06,24,07,18,7.70
2012,06,24,07,19,7.70
2012,06,24,07,20,7.80
2012,06,24,07,21,7.80
2012,06,24,07,22,7.80
2012,06,24,07,23,7.90
2012,06,24,07,24,7.90
2012,06,24,07,25,8.00
2012,06,24,07,26,8.00
2012,06,24,07,27,8.10
2012,06,24,07,28,8.10
2012,06,24,07,29,8.20
2012,06,24,07,30,8.20
2012,06,24,07,31,8.20
2012,06,24,07,32,8.30
2012,06,24,07,33,8.30
2012,06,24,07,34,8.30
2012,06,24,07,35,8.40
2012,06,24,07,36,8.40
2012,06,24,07,37,8.50
2012,06,24,07,38,8.50
2012,06,24,07,39,8.50
2012,06,24,07,40,8.50
2012,06,24,07,41,8.50
2012,06,24,07,42,8.50
2012,06,24,07,43,8.50
2012,06,24,07,44,8.50
2012,06,24,07,45,8.50
2012,06,24,07,46,8.60
2012,06,24,07,47,8.60
2012,06,24,07,48,8.60
2012,06,24,07,49,8.70
2012,06,24,07,50,8.70
2012,06,24,07,51,8.70
2012,06,24,07,52,8.80
2012,06,24,07,53,8.80
2012,06,24,07,54,8.90
2012,06,24,07,55,8.90
2012,06,24,07,56,9.00
2012,06,24,07,57,9.00
2012,06,24,07,58,9.10
2012,06,24,07,59,9.20
2012,06,24,08,00,9.20
2012,06,24,08,01,9.30
2012,06,24,08,02,9.40
2012,06,24,08,03,9.40
2012,06,24,08,04,9.50
2012,06,24,08,05,9.50
2012,06,24,08,06,9.60
2012,06,24,08,07,9.60
2012,06,24,08,08,9.70
2012,06,24,08,09,9.70
2012,06,24,08,10,9.70
2012,06,24,08,11,9.80
2012,06,24,08,12,9.80
2012,06,24,08,13,9.90
2012,06,24,08,14,9.90
2012,06,24,08,15,9.90
2012,06,24,08,16,9.90
2012,06,24,08,17,10.00
2012,06,24,08,18,10.00
2012,06,24,08,19,10.00
2012,06,24,08,20,10.00
2012,06,24,08,21,10.00
2012,06,24,08,22,10.00
2012,06,24,08,23,10.00
2012,06,24,08,24,10.00
2012,06,24,08,25,10.00
2012,06,24,08,26,10.00
2012,06,24,08,27,10.00
2012,06,24,08,28,10.00
2012,06,24,08,29,10.00
2012,06,24,08,30,10.00
2012,06,24,08,31,10.00
2012,06,24,08,32,10.00
2012,06,24,08,33,10.00
2012,06,24,08,34,10.10
2012,06,24,08,35,10.10
2012,06,24,08,36,10.10
2012,06,24,08,37,10.10
2012,06,24,08,38,10.10
2012,06,24,08,39,10.10
2012,06,24,08,40,10.10
2012,06,24,08,41,10.10
2012,06,24,08,42,10.10
2012,06,24,08,43,10.10
2012,06,24,08,44,10.10
2012,06,24,08,45,10.20
2012,06,24,08,46,10.20
2012,06,24,08,47,10.20
2012,06,24,08,48,10.30
2012,06,24,08,49,10.30
2012,06,24,08,50,10.40
2012,06,24,08,51,10.40
2012,06,24,08,52,10.50
2012,06,24,08,53,10.50
2012,06,24,08,54,10.60
2012,06,24,08,55,10.60
2012,06,24,08,56,10.70
2012,06,24,08,57,10.70
2012,06,24,08,58,10.80
2012,06,24,08,59,10.80
2012,06,24,09,00,10.90
2012,06,24,09,01,10.90
2012,06,24,09,02,11.00
2012,06,24,09,03,11.10
2012,06,24,09,04,11.10
2012,06,24,09,05,11.20
2012,06,24,09,06,11.20
2012,06,24,09,07,11.20
2012,06,24,09,08,11.30
2012,06,24,09,09,11.30
2012,06,24,09,10,11.30
2012,06,24,09,11,11.30
2012,06,24,09,12,11.40
2012,06,24,09,13,11.40
2012,06,24,09,14,11.40
2012,06,24,09,15,11.40
2012,06,24,09,16,11.40
2012,06,24,09,17,11.40
2012,06,24,09,18,11.40
2012,06,24,09,19,11.40
2012,06,24,09,20,11.50
2012,06,24,09,21,11.50
2012,06,24,09,22,11.50
2012,06,24,09,23,11.50
2012,06,24,09,24,11.50
2012,06,24,09,25,11.50
2012,06,24,09,26,11.60
2012,06,24,09,27,11.60
2012,06,24,09,28,11.60
2012,06,24,09,29,11.60
2012,06,24,09,30,11.60
2012,06,24,09,31,11.60
2012,06,24,09,32,11.60
2012,06,24,09,33,11.60
2012,06,24,09,34,11.60
2012,06,24,09,35,11.60
2012,06,24,09,36,11.70
2012,06,24,09,37,11.70
2012,06,24,09,38,11.70
2012,06,24,09,39,11.70
2012,06,24,09,40,11.80
2012,06,24,09,41,11.80
2012,06,24,09,42,11.80
2012,06,24,09,43,11.90
2012,06,24,09,44,11.90
2012,06,24,09,45,12.00
2012,06,24,09,46,12.00
2012,06,24,09,47,12.00
2012,06,24,09,48,12.00
2012,06,24,09,49,11.90
2012,06,24,09,50,11.90
2012,06,24,09,51,11.90
2012,06,24,09,52,11.90
2012,06,24,09,53,11.90
2012,06,24,09,54,11.90
2012,06,24,09,55,11.90
2012,06,24,09,56,12.00
2012,06,24,09,57,12.00
2012,06,24,09,58,12.10
2012,06,24,09,59,12.10
2012,06,24,10,00,12.20
2012,06,24,10,01,12.30
2012,06,24,10,02,12.40
2012,06,24,10,03,12.40
2012,06,24,10,04,12.50
2012,06,24,10,05,12.60
2012,06,24,10,06,12.70
2012,06,24,10,07,12.80
2012,06,24,10,08,12.90
2012,06,24,10,09,12.90
2012,06,24,10,10,13.00
2012,06,24,10,11,13.10
2012,06,24,10,12,13.20
2012,06,24,10,13,13.30
2012,06,24,10,14,13.40
2012,06,24,10,15,13.40
2012,06,24,10,16,13.50
2012,06,24,10,17,13.50
2012,06,24,10,18,13.60
2012,06,24,10,19,13.60
2012,06,24,10,20,13.60
2012,06,24,10,21,13.70
2012,06,24,10,22,13.70
2012,06,24,10,23,13.70
2012,06,24,10,24,13.70
2012,06,24,10,25,13.80
2012,06,24,10,26,13.80
2012,06,24,10,27,13.90
2012,06,24,10,28,13.90
2012,06,24,10,29,14.00
2012,06,24,10,30,14.00
2012,06,24,10,31,14.10
2012,06,24,10,32,14.10
2012,06,24,10,33,14.10
2012,06,24,10,34,14.20
2012,06,24,10,35,14.30
2012,06,24,10,36,14.30
2012,06,24,10,37,14.40
2012,06,24,10,38,14.50
2012,06,24,10,39,14.50
2012,06,24,10,40,14.60
2012,06,24,10,41,14.60
2012,06,24,10,42,14.70
2012,06,24,10,43,14.70
2012,06,24,10,44,14.70
2012,06,24,10,45,14.80
2012,06,24,10,46,14.80
2012,06,24,10,47,14.80
2012,06,24,10,48,14.80
2012,06,24,10,49,14.90
2012,06,24,10,50,14.90
2012,06,24,10,51,14.90
2012,06,24,10,52,14.90
2012,06,24,10,53,14.90
2012,06,24,10,54,14.90
2012,06,24,10,55,14.80
2012,06,24,10,56,14.80
2012,06,24,10,57,14.80
2012,06,24,10,58,14.80
2012,06,24,10,59,14.80
2012,06,24,11,00,14.80
2012,06,24,11,01,14.80
2012,06,24,11,02,14.80
2012,06,24,11,03,14.80
2012,06,24,11,04,14.80
2012,06,24,11,05,14.80
2012,06,24,11,06,14.90
2012,06,24,11,07,14.90
2012,06,24,11,08,15.00
2012,06,24,11,09,15.00
2012,06,24,11,10,15.00
2012,06,24,11,11,15.00
2012,06,24,11,12,15.00
2012,06,24,11,13,15.10
2012,06,24,11,14,15.10
2012,06,24,11,15,15.10
2012,06,24,11,16,15.10
2012,06,24,11,17,15.10
2012,06,24,11,18,15.10
2012,06,24,11,19,15.10
2012,06,24,11,20,15.10
2012,06,24,11,21,15.10
2012,06,24,11,22,15.10
2012,06,24,11,23,15.10
2012,06,24,11,24,15.00
2012,06,24,11,25,15.00
2012,06,24,11,26,15.00
2012,06,24,11,27,15.00
2012,06,24,11,28,15.00
2012,06,24,11,29,15.10
2012,06,24,11,30,15.10
2012,06,24,11,31,15.10
2012,06,24,11,32,15.10
2012,06,24,11,33,15.10
2012,06,24,11,34,15.10
2012,06,24,11,35,15.10
2012,06,24,11,36,15.10
2012,06,24,11,37,15.10
2012,06,24,11,38,15.20
2012,06,24,11,39,15.20
2012,06,24,11,40,15.20
2012,06,24,11,41,15.20
2012,06,24,11,42,15.20
2012,06,24,11,43,15.20
2012,06,24,11,44,15.20
2012,06,24,11,45,15.30
2012,06,24,11,46,15.30
2012,06,24,11,47,15.30
2012,06,24,11,48,15.30
2012,06,24,11,49,15.40
2012,06,24,11,50,15.40
2012,06,24,11,51,15.40
2012,06,24,11,52,15.40
2012,06,24,11,53,15.40
2012,06,24,11,54,15.40
2012,06,24,11,55,15.40
2012,06,24,11,56,15.30
2012,06,24,11,57,15.30
2012,06,24,11,58,15.20
2012,06,24,11,59,15.10
2012,06,24,12,00,15.00
2012,06,24,12,01,15.00
2012,06,24,12,02,14.90
2012,06,24,12,03,14.80
2012,06,24,12,04,14.80
2012,06,24,12,05,14.80
2012,06,24,12,06,14.80
2012,06,24,12,07,14.80
2012,06,24,12,08,14.80
2012,06,24,12,09,14.80
2012,06,24,12,10,14.70
2012,06,24,12,11,14.70
2012,06,24,12,12,14.70
2012,06,24,12,13,14.70
2012,06,24,12,14,14.70
2012,06,24,12,15,14.70
2012,06,24,12,16,14.80
2012,06,24,12,17,14.80
2012,06,24,12,18,14.80
2012,06,24,12,19,14.90
2012,06,24,12,20,14.90
2012,06,24,12,21,15.00
2012,06,24,12,22,15.00
2012,06,24,12,23,15.00
2012,06,24,12,24,15.00
2012,06,24,12,25,14.90
2012,06,24,12,26,15.00
2012,06,24,12,27,15.00
2012,06,24,12,28,15.00
2012,06,24,12,29,15.00
2012,06,24,12,30,15.00
2012,06,24,12,31,15.10
2012,06,24,12,32,15.10
2012,06,24,12,33,15.10
2012,06,24,12,34,15.10
2012,06,24,12,35,15.10
2012,06,24,12,36,15.10
2012,06,24,12,37,15.10
2012,06,24,12,38,15.10
2012,06,24,12,39,15.10
2012,06,24,12,40,15.10
2012,06,24,12,41,15.10
2012,06,24,12,42,15.10
2012,06,24,12,43,15.00
2012,06,24,12,44,15.00
2012,06,24,12,45,14.90
2012,06,24,12,46,14.90
2012,06,24,12,47,14.90
2012,06,24,12,48,14.90
2012,06,24,12,49,14.80
2012,06,24,12,50,14.80
2012,06,24,12,51,14.80
2012,06,24,12,52,14.80
2012,06,24,12,53,14.80
2012,06,24,12,54,14.80
2012,06,24,12,55,14.90
2012,06,24,12,56,14.90
2012,06,24,12,57,14.90
2012,06,24,12,58,14.90
2012,06,24,12,59,14.90
2012,06,24,13,00,15.00
2012,06,24,13,01,15.00
2012,06,24,13,02,15.10
2012,06,24,13,03,15.10
2012,06,24,13,04,15.10
2012,06,24,13,05,15.10
2012,06,24,13,06,15.20
2012,06,24,13,07,15.20
2012,06,24,13,08,15.20
2012,06,24,13,09,15.30
2012,06,24,13,10,15.30
2012,06,24,13,11,15.40
2012,06,24,13,12,15.40
2012,06,24,13,13,15.40
2012,06,24,13,14,15.50
2012,06,24,13,15,15.50
2012,06,24,13,16,15.60
2012,06,24,13,17,15.60
2012,06,24,13,18,15.60
2012,06,24,13,19,15.70
2012,06,24,13,20,15.70
2012,06,24,13,21,15.70
2012,06,24,13,22,15.80
2012,06,24,13,23,15.80
2012,06,24,13,24,15.80
2012,06,24,13,25,15.80
2012,06,24,13,26,15.90
2012,06,24,13,27,15.90
2012,06,24,13,28,16.00
2012,06,24,13,29,16.10
2012,06,24,13,30,16.10
2012,06,24,13,31,16.10
2012,06,24,13,32,16.10
2012,06,24,13,33,16.20
2012,06,24,13,34,16.20
2012,06,24,13,35,16.10
2012,06,24,13,36,16.10
2012,06,24,13,37,16.00
2012,06,24,13,38,16.00
2012,06,24,13,39,15.90
2012,06,24,13,40,15.80
2012,06,24,13,41,15.80
2012,06,24,13,42,15.70
2012,06,24,13,43,15.70
2012,06,24,13,44,15.60
2012,06,24,13,45,15.60
2012,06,24,13,46,15.60
2012,06,24,13,47,15.60
2012,06,24,13,48,15.60
2012,06,24,13,49,15.60
2012,06,24,13,50,15.70
2012,06,24,13,51,15.70
2012,06,24,13,52,15.80
2012,06,24,13,53,15.90
2012,06,24,13,54,15.90
2012,06,24,13,55,16.00
2012,06,24,13,56,16.10
2012,06,24,13,57,16.10
2012,06,24,13,58,16.10
2012,06,24,13,59,16.10
2012,06,24,14,00,16.20
2012,06,24,14,01,16.20
2012,06,24,14,02,16.20
2012,06,24,14,03,16.30
2012,06,24,14,04,16.30
2012,06,24,14,05,16.30
2012,06,24,14,06,16.40
2012,06,24,14,07,16.50
2012,06,24,14,08,16.50
2012,06,24,14,09,16.60
2012,06,24,14,10,16.60
2012,06,24,14,11,16.60
2012,06,24,14,12,16.60
2012,06,24,14,13,16.70
2012,06,24,14,14,16.70
2012,06,24,14,15,16.70
2012,06,24,14,16,16.70
2012,06,24,14,17,16.70
2012,06,24,14,18,16.70
2012,06,24,14,19,16.60
2012,06,24,14,20,16.60
2012,06,24,14,21,16.60
2012,06,24,14,22,16.60
2012,06,24,14,23,16.50
2012,06,24,14,24,16.50
2012,06,24,14,25,16.50
2012,06,24,14,26,16.50
2012,06,24,14,27,16.50
2012,06,24,14,28,16.50
2012,06,24,14,29,16.50
2012,06,24,14,30,16.40
2012,06,24,14,31,16.40
2012,06,24,14,32,16.30
2012,06,24,14,33,16.30
2012,06,24,14,34,16.30
2012,06,24,14,35,16.30
2012,06,24,14,36,16.40
2012,06,24,14,37,16.40
2012,06,24,14,38,16.50
2012,06,24,14,39,16.60
2012,06,24,14,40,16.70
2012,06,24,14,41,16.80
2012,06,24,14,42,16.90
2012,06,24,14,43,16.90
2012,06,24,14,44,16.90
2012,06,24,14,45,16.90
2012,06,24,14,46,17.00
2012,06,24,14,47,17.00
2012,06,24,14,48,17.10
2012,06,24,14,49,17.10
2012,06,24,14,50,17.00
2012,06,24,14,51,17.00
2012,06,24,14,52,17.00
2012,06,24,14,53,17.00
2012,06,24,14,54,17.10
2012,06,24,14,55,17.00
2012,06,24,14,56,17.10
2012,06,24,14,57,17.10
2012,06,24,14,58,17.10
2012,06,24,14,59,17.10
2012,06,24,15,00,17.10
2012,06,24,15,01,17.10
2012,06,24,15,02,17.10
2012,06,24,15,03,17.20
2012,06,24,15,04,17.20
2012,06,24,15,05,17.20
2012,06,24,15,06,17.20
2012,06,24,15,07,17.30
2012,06,24,15,08,17.30
2012,06,24,15,09,17.30
2012,06,24,15,10,17.30
2012,06,24,15,11,17.30
2012,06,24,15,12,17.30
2012,06,24,15,13,17.20
2012,06,24,15,14,17.10
2012,06,24,15,15,17.10
2012,06,24,15,16,17.10
2012,06,24,15,17,17.10
2012,06,24,15,18,17.20
2012,06,24,15,19,17.20
2012,06,24,15,20,17.20
2012,06,24,15,21,17.30
2012,06,24,15,22,17.30
2012,06,24,15,23,17.30
2012,06,24,15,24,17.30
2012,06,24,15,25,17.30
2012,06,24,15,26,17.30
2012,06,24,15,27,17.30
2012,06,24,15,28,17.30
2012,06,24,15,29,17.30
2012,06,24,15,30,17.30
2012,06,24,15,31,17.30
2012,06,24,15,32,17.20
2012,06,24,15,33,17.30
2012,06,24,15,34,17.30
2012,06,24,15,35,17.30
2012,06,24,15,36,17.30
2012,06,24,15,37,17.30
2012,06,24,15,38,17.30
2012,06,24,15,39,17.30
2012,06,24,15,40,17.20
2012,06,24,15,41,17.20
2012,06,24,15,42,17.20
2012,06,24,15,43,17.20
2012,06,24,15,44,17.20
2012,06,24,15,45,17.20
2012,06,24,15,46,17.20
2012,06,24,15,47,17.20
2012,06,24,15,48,17.10
2012,06,24,15,49,17.10
2012,06,24,15,50,17.00
2012,06,24,15,51,17.00
2012,06,24,15,52,16.90
2012,06,24,15,53,17.00
2012,06,24,15,54,17.00
2012,06,24,15,55,17.00
2012,06,24,15,56,16.90
2012,06,24,15,57,16.90
2012,06,24,15,58,16.90
2012,06,24,15,59,16.90
2012,06,24,16,00,16.90
2012,06,24,16,01,16.90
2012,06,24,16,02,16.90
2012,06,24,16,03,16.90
2012,06,24,16,04,17.00
2012,06,24,16,05,17.00
2012,06,24,16,06,17.10
2012,06,24,16,07,17.10
2012,06,24,16,08,17.10
2012,06,24,16,09,17.10
2012,06,24,16,10,17.10
2012,06,24,16,11,17.10
2012,06,24,16,12,17.10
2012,06,24,16,13,17.20
2012,06,24,16,14,17.20
2012,06,24,16,15,17.20
2012,06,24,16,16,17.20
2012,06,24,16,17,17.20
2012,06,24,16,18,17.20
2012,06,24,16,19,17.20
2012,06,24,16,20,17.10
2012,06,24,16,21,17.10
2012,06,24,16,22,17.10
2012,06,24,16,23,17.10
2012,06,24,16,24,17.10
2012,06,24,16,25,17.10
2012,06,24,16,26,17.10
2012,06,24,16,27,17.10
2012,06,24,16,28,17.10
2012,06,24,16,29,17.10
2012,06,24,16,30,17.10
2012,06,24,16,31,17.10
2012,06,24,16,32,17.00
2012,06,24,16,33,17.00
2012,06,24,16,34,16.90
2012,06,24,16,35,16.90
2012,06,24,16,36,16.80
2012,06,24,16,37,16.80
2012,06,24,16,38,16.70
2012,06,24,16,39,16.70
2012,06,24,16,40,16.70
2012,06,24,16,41,16.60
2012,06,24,16,42,16.60
2012,06,24,16,43,16.60
2012,06,24,16,44,16.60
2012,06,24,16,45,16.60
2012,06,24,16,46,16.50
2012,06,24,16,47,16.50
2012,06,24,16,48,16.40
2012,06,24,16,49,16.40
2012,06,24,16,50,16.40
2012,06,24,16,51,16.40
2012,06,24,16,52,16.40
2012,06,24,16,53,16.40
2012,06,24,16,54,16.40
2012,06,24,16,55,16.40
2012,06,24,16,56,16.40
2012,06,24,16,57,16.40
2012,06,24,16,58,16.40
2012,06,24,16,59,16.40
2012,06,24,17,00,16.30
2012,06,24,17,01,16.30
2012,06,24,17,02,16.30
2012,06,24,17,03,16.30
2012,06,24,17,04,16.40
2012,06,24,17,05,16.40
2012,06,24,17,06,16.40
2012,06,24,17,07,16.40
2012,06,24,17,08,16.40
2012,06,24,17,09,16.40
2012,06,24,17,10,16.40
2012,06,24,17,11,16.40
2012,06,24,17,12,16.50
2012,06,24,17,13,16.50
2012,06,24,17,14,16.50
2012,06,24,17,15,16.50
2012,06,24,17,16,16.50
2012,06,24,17,17,16.60
2012,06,24,17,18,16.60
2012,06,24,17,19,16.60
2012,06,24,17,20,16.60
2012,06,24,17,21,16.70
2012,06,24,17,22,16.70
2012,06,24,17,23,16.70
2012,06,24,17,24,16.70
2012,06,24,17,25,16.70
2012,06,24,17,26,16.70
2012,06,24,17,27,16.70
2012,06,24,17,28,16.70
2012,06,24,17,29,16.80
2012,06,24,17,30,16.80
2012,06,24,17,31,16.70
2012,06,24,17,32,16.70
2012,06,24,17,33,16.70
2012,06,24,17,34,16.70
2012,06,24,17,35,16.70
2012,06,24,17,36,16.70
2012,06,24,17,37,16.70
2012,06,24,17,38,16.70
2012,06,24,17,39,16.70
2012,06,24,17,40,16.60
2012,06,24,17,41,16.60